Regional Weather Roundup
Issued by NWS Midland/Odessa, TX

Skip options and go directly to product.
Home | Oldest Version | Previous Version | Current Version | All | Text Only | Save Text | Print | Product List | Glossary On

Skip product version selection by date and time.   
026
ASUS44 KMAF 301610
RWRMAF
MIDLAND AREA WEATHER ROUNDUP
NATIONAL WEATHER SERVICE MIDLAND TX
1100 AM CDT TUE JUN 30 2015

...IN SOUTHWEST TEXAS AND SOUTHEAST NEW MEXICO...

CITY           SKY/WX    TMP DP  RH WIND       PRES   REMARKS
ALPINE         MOSUNNY   73  57  56 NE6       30.24F
ANDREWS        PTSUNNY   74  60  60 W5        30.13F
ARTESIA        MOSUNNY   75  64  69 S10G16    30.18F
BIG SPRING     MOSUNNY   76  60  56 CALM      30.14F
CARLSBAD       PTSUNNY   76  60  57 VRB5      30.14F
DRYDEN           N/A     81  66  60 VRB7      30.07F
FORT STOCKTON  MOSUNNY   75  57  53 SE8       30.13F
GUAD PASS      MOSUNNY   67  58  72 NE16      30.27F
HOBBS          SUNNY     73  59  60 S6        30.18F
MARFA          PTSUNNY  N/A N/A N/A N15       30.23R
MIDLAND AIRPK  PTSUNNY   72  63  73 NE5       30.13S
MIDLAND INTL   CLOUDY    72  63  73 S8        30.11S
ODESSA         CLOUDY    71  60  68 MISG      30.12S
PECOS          PTSUNNY   72  62  70 CALM      30.13R
PRESIDIO       FAIR      81  65  58 MISG      30.06S
SEMINOLE       PTSUNNY   76  60  57 W8        30.15F
SNYDER         PTSUNNY   72  63  72 CALM      30.13F
WINK           CLOUDY    72  61  68 CALM      30.13R
$$
...OTHER STATIONS IN TEXAS...

CITY           SKY/WX    TMP DP  RH WIND       PRES   REMARKS
ABILENE        MOSUNNY   85  65  51 S8        30.09F
AMARILLO       SUNNY     78  58  49 SW12      30.17F
AUSTIN         PTSUNNY   84  75  74 S8        30.06F
BROWNSVILLE    LGT RAIN  76  74  93 SE10      30.08R
CORPUS CHRISTI PTSUNNY   88  76  67 S20       30.03R
DALLAS FTW     MOSUNNY   86  70  58 SW15      30.03S
DEL RIO        CLOUDY    80  73  79 SE10      30.03F
EL PASO        MOSUNNY   82  56  40 E15       30.14S
HOUSTON INT    PTSUNNY   89  74  60 W12       30.05S
LUBBOCK        PTSUNNY   76  63  64 NW9       30.14F
SAN ANGELO     MOSUNNY   78  67  68 SE8       30.10F
SAN ANTONIO    PTSUNNY   84  73  69 VRB6      30.07S
WACO           PTSUNNY   80  72  76 S6        30.05F
WICHITA FALLS  NOT AVBL
$$
...OTHER LOCATIONS IN NEW MEXICO...

CITY           SKY/WX    TMP DP  RH WIND       PRES   REMARKS
ALAMAGORDO     MOSUNNY   82  54  36 S7        30.16F
ALBUQUERQUE    MOSUNNY   78  50  37 NW8       30.27S
CANNON AFB     SUNNY     75  58  54 SW8       30.20F
CLOVIS         SUNNY     73  57  56 W6        30.21F
HOLLOMAN AFB   MOSUNNY   83  52  34 W9        30.13F
ROSWELL        SUNNY     78  60  53 S9        30.17F
RUIDOSO        SUNNY     68  52  56 CALM      30.38S
SANTA FE       PTSUNNY   76  47  35 S8        30.32F
TRUTH OR CONSE SUNNY     81  54  39 N9        30.20F
TUCUMCARI      SUNNY     81  57  43 S5        30.18F
$$

USA.gov is the U.S. government's official web portal to all federal, state and local government web resources and services.